EW0310 Weather Reports


time (UTC)temp
C
wind
direction
speed
KPH
gust
KPH
rain 1hr
cm
rain 24hr
cm
rain mn
cm
humidity
%
barometer
mb
20260507164505 12 270 8.0 29.0 0.00 0.00 0.00 52 1011.6
20260507164004 12 286 9.7 22.5 0.00 0.00 0.00 52 1011.5
20260507163004 11 252 4.8 29.0 0.00 0.00 0.00 52 1011.5
20260507162005 11 302 3.2 11.3 0.00 0.00 0.00 55 1011.6
20260507161006 11 308 8.0 12.9 0.00 0.00 0.00 54 1011.6
20260507160503 11 315 9.7 19.3 0.00 0.00 0.00 56 1011.7
20260507160003 11 316 6.4 9.7 0.00 0.00 0.00 54 1011.7
20260507155503 10 292 3.2 16.1 0.00 0.00 0.00 54 1011.9
20260507155004 10 265 4.8 19.3 0.00 0.00 0.00 52 1011.9
20260507154004 11 319 9.7 19.3 0.00 0.03 0.00 52 1011.9
20260507153504 11 272 6.4 19.3 0.00 0.03 0.00 53 1012.0
20260507153004 11 311 4.8 16.1 0.00 0.03 0.00 52 1012.0
20260507152504 11 234 4.8 12.9 0.00 0.03 0.00 54 1012.1
20260507152004 11 320 9.7 27.4 0.00 0.03 0.00 54 1012.1
20260507151004 11 288 3.2 19.3 0.00 0.03 0.00 57 1012.2
20260507150504 10 293 4.8 20.9 0.00 0.03 0.00 55 1012.4
20260507145504 11 313 9.7 19.3 0.00 0.03 0.00 54 1012.6
20260507145003 11 304 9.7 19.3 0.00 0.03 0.00 55 1012.6
20260507144504 11 240 4.8 16.1 0.00 0.03 0.00 55 1012.6
20260507144003 11 301 8.0 19.3 0.00 0.03 0.00 53 1012.5
20260507143503 11 288 1.6 14.5 0.00 0.03 0.00 54 1012.7
20260507143003 10 269 4.8 12.9 0.00 0.03 0.00 58 1012.7
20260507142504 10 290 3.2 9.7 0.00 0.03 0.00 56 1012.9
20260507142003 10 286 3.2 12.9 0.00 0.03 0.00 58 1012.8
20260507141004 10 222 4.8 16.1 0.00 0.03 0.00 57 1013.0
20260507140503 10 313 8.0 19.3 0.00 0.03 0.00 55 1013.0
20260507140003 10 305 9.7 14.5 0.00 0.03 0.00 58 1013.2
20260507135504 9 266 3.2 12.9 0.00 0.03 0.00 58 1013.2
20260507135004 9 271 4.8 14.5 0.00 0.03 0.00 58 1013.3
20260507134503 9 312 8.0 16.1 0.00 0.03 0.00 59 1013.1
20260507134004 8 319 8.0 16.1 0.00 0.03 0.00 61 1013.2
20260507133504 8 305 3.2 12.9 0.00 0.03 0.00 64 1013.2
20260507133004 8 294 9.7 20.9 0.00 0.03 0.00 64 1013.1
20260507132504 8 344 4.8 12.9 0.00 0.03 0.00 65 1013.1
20260507132004 7 294 3.2 11.3 0.00 0.03 0.00 67 1013.0
20260507131503 7 310 1.6 4.8 0.00 0.03 0.00 68 1013.1
20260507131003 7 330 3.2 8.0 0.00 0.03 0.00 68 1013.1
20260507130504 7 291 3.2 9.7 0.00 0.03 0.00 70 1013.2
20260507130004 7 250 1.6 11.3 0.00 0.03 0.00 70 1013.2
20260507125503 6 281 1.6 4.8 0.00 0.05 0.00 72 1013.2
20260507125004 6 312 4.8 9.7 0.00 0.05 0.00 73 1013.3
20260507124504 6 303 3.2 8.0 0.00 0.08 0.00 73 1013.3
20260507124003 6 289 3.2 11.3 0.00 0.08 0.00 72 1013.3
20260507123504 6 287 3.2 4.8 0.00 0.08 0.00 71 1013.3
20260507123004 6 302 4.8 8.0 0.00 0.08 0.00 71 1013.3
20260507122504 6 308 4.8 9.7 0.00 0.08 0.00 69 1013.2
20260507122004 5 292 3.2 8.0 0.00 0.08 0.00 69 1013.1
20260507121503 5 278 3.2 4.8 0.00 0.08 0.00 72 1013.1
20260507120504 5 308 0.0 3.2 0.00 0.08 0.00 73 1013.2
20260507120004 5 304 1.6 4.8 0.00 0.08 0.00 73 1013.2
20260507115504 5 291 3.2 4.8 0.00 0.08 0.00 75 1013.3
20260507115004 5 294 3.2 4.8 0.00 0.08 0.00 76 1013.3
20260507114504 4 285 1.6 4.8 0.00 0.08 0.00 78 1013.2
20260507114004 4 305 1.6 8.0 0.00 0.08 0.00 77 1013.2
20260507113504 3 284 1.6 4.8 0.00 0.10 0.00 80 1013.1
20260507113005 3 291 1.6 4.8 0.00 0.13 0.00 83 1013.0
20260507112003 3 286 1.6 4.8 0.00 0.18 0.00 84 1012.6
20260507111504 3 297 1.6 8.0 0.00 0.23 0.00 84 1012.6
20260507111004 3 300 1.6 4.8 0.00 0.25 0.00 84 1012.7
20260507110503 3 300 1.6 4.8 0.00 0.30 0.00 84 1012.6
20260507110003 2 279 0.0 3.2 0.00 0.30 0.00 84 1012.6
20260507105504 2 285 1.6 4.8 0.00 0.33 0.00 85 1012.6
20260507104504 2 299 1.6 4.8 0.00 0.38 0.00 84 1012.5
20260507103504 2 313 0.0 4.8 0.00 0.41 0.00 84 1012.3
20260507103003 2 313 0.0 3.2 0.00 0.41 0.00 84 1012.2
20260507102503 2 313 0.0 1.6 0.00 0.41 0.00 84 1012.2
20260507102004 2 313 0.0 0.0 0.00 0.43 0.00 84 1012.2
20260507101503 2 313 0.0 0.0 0.00 0.43 0.00 84 1012.1
20260507101004 2 313 0.0 0.0 0.00 0.46 0.00 84 1012.2
20260507100503 3 313 0.0 3.2 0.00 0.46 0.00 83 1012.3
20260507100003 3 313 0.0 0.0 0.00 0.46 0.00 83 1012.2
20260507095503 3 313 0.0 0.0 0.00 0.46 0.00 83 1012.3
20260507095003 3 313 0.0 3.2 0.00 0.46 0.00 82 1012.3
20260507094504 3 313 1.6 4.8 0.00 0.46 0.00 81 1012.3
20260507094004 3 315 3.2 4.8 0.00 0.46 0.00 81 1012.3
20260507093003 3 306 1.6 4.8 0.00 0.48 0.00 82 1012.3
20260507092004 3 309 1.6 4.8 0.00 0.51 0.00 83 1012.3
20260507091504 3 307 3.2 4.8 0.00 0.51 0.00 83 1012.3
20260507090504 3 319 3.2 9.7 0.00 0.51 0.00 83 1012.2
20260507090005 3 308 3.2 8.0 0.00 0.51 0.00 82 1012.2
20260507085504 3 299 3.2 8.0 0.00 0.51 0.00 83 1012.2
20260507085004 3 304 3.2 8.0 0.00 0.51 0.00 82 1012.1
20260507084003 3 295 1.6 4.8 0.00 0.51 0.00 81 1012.3
20260507083503 4 308 3.2 4.8 0.00 0.51 0.00 80 1012.3
20260507083004 4 306 3.2 8.0 0.00 0.51 0.00 80 1012.3
20260507082503 4 307 1.6 8.0 0.00 0.51 0.00 80 1012.2
20260507082004 5 308 3.2 4.8 0.00 0.51 0.00 79 1012.3
20260507081504 5 315 1.6 4.8 0.00 0.51 0.00 78 1012.3
20260507081003 5 317 1.6 3.2 0.00 0.51 0.00 77 1012.4
20260507080004 5 315 1.6 4.8 0.00 0.51 0.00 77 1012.6
20260507075004 5 313 3.2 4.8 0.00 0.51 0.00 76 1012.5
20260507074503 5 304 1.6 4.8 0.00 0.51 0.00 76 1012.5
20260507074004 5 306 1.6 4.8 0.00 0.51 0.00 75 1012.5
20260507072504 5 317 1.6 4.8 0.00 0.51 0.00 77 1012.5
20260507072003 5 315 1.6 3.2 0.00 0.51 0.00 76 1012.4
20260507071504 5 315 1.6 4.8 0.00 0.51 0.00 74 1012.3
20260507071004 6 317 3.2 8.0 0.00 0.51 0.00 75 1012.4
20260507070503 6 325 1.6 4.8 0.00 0.51 0.00 74 1012.4
20260507070007 6 326 1.6 4.8 0.00 0.51 0.00 75 1012.4
20260507065003 6 321 3.2 8.0 0.00 0.51 0.00 74 1012.4
20260507064504 6 285 4.8 8.0 0.00 0.51 0.00 73 1012.3
20260507064003 6 305 3.2 9.7 0.00 0.51 0.00 73 1012.5
20260507063504 6 306 3.2 9.7 0.00 0.51 0.00 74 1012.6
20260507062503 6 325 3.2 8.0 0.00 0.51 0.00 73 1012.6
20260507062004 6 306 6.4 14.5 0.00 0.51 0.00 74 1012.8
20260507061003 6 319 3.2 4.8 0.00 0.51 0.00 73 1012.8
20260507060503 6 311 4.8 9.7 0.00 0.51 0.00 74 1012.8
20260507060004 6 307 4.8 11.3 0.00 0.51 0.00 73 1012.9
20260507055503 6 310 4.8 12.9 0.00 0.51 0.00 74 1012.9
20260507055004 6 305 4.8 16.1 0.00 0.51 0.00 75 1013.0
20260507054503 6 315 3.2 4.8 0.00 0.51 0.00 76 1012.9
20260507054004 6 310 4.8 11.3 0.00 0.51 0.00 76 1012.9
20260507053504 6 291 0.0 4.8 0.00 0.51 0.00 76 1012.9
20260507053005 6 292 3.2 9.7 0.00 0.51 0.00 75 1012.9
20260507052504 6 304 3.2 4.8 0.00 0.51 0.00 75 1013.0
20260507052004 6 340 4.8 9.7 0.00 0.51 0.00 77 1013.0
20260507051503 6 310 3.2 4.8 0.00 0.51 0.00 77 1013.1
20260507051004 6 321 4.8 9.7 0.00 0.51 0.00 79 1013.0
20260507050505 6 314 4.8 12.9 0.00 0.51 0.00 80 1012.9
20260507050005 6 301 3.2 8.0 0.00 0.51 0.00 82 1013.1
20260507045504 6 304 1.6 4.8 0.00 0.51 0.00 82 1013.3
20260507045004 6 302 3.2 4.8 0.00 0.51 0.00 81 1013.1
20260507044004 6 306 1.6 4.8 0.00 0.51 0.00 80 1013.2
20260507043504 6 302 1.6 4.8 0.00 0.51 0.00 81 1013.0
20260507043004 7 292 3.2 4.8 0.00 0.51 0.00 81 1013.0
20260507042503 7 319 0.0 3.2 0.00 0.51 0.00 81 1013.1
20260507042005 7 323 3.2 4.8 0.00 0.51 0.00 81 1013.0
20260507041004 7 320 3.2 4.8 0.00 0.51 0.00 79 1013.2
20260507040004 7 306 1.6 4.8 0.00 0.51 0.00 81 1013.2
20260507035504 7 306 1.6 4.8 0.00 0.51 0.51 80 1013.2
20260507035004 7 306 0.0 1.6 0.00 0.51 0.51 80 1013.4
20260507034504 7 307 1.6 4.8 0.00 0.51 0.51 80 1013.1
20260507033504 7 320 1.6 4.8 0.00 0.51 0.51 80 1012.7
20260507033003 7 326 1.6 8.0 0.00 0.51 0.51 79 1012.6
20260507032503 7 327 3.2 4.8 0.00 0.51 0.51 79 1012.7
20260507031504 7 330 1.6 4.8 0.00 0.51 0.51 80 1012.6
20260507031004 7 340 3.2 8.0 0.00 0.51 0.51 79 1012.7
20260507030503 7 342 4.8 14.5 0.00 0.51 0.51 79 1012.8
20260507025503 7 338 3.2 8.0 0.00 0.51 0.51 80 1012.9
20260507025003 7 319 4.8 12.9 0.00 0.51 0.51 81 1013.0
20260507024504 7 316 6.4 12.9 0.00 0.51 0.51 81 1012.7
20260507024004 7 316 3.2 9.7 0.00 0.51 0.51 81 1012.7
20260507023503 7 323 4.8 11.3 0.00 0.51 0.51 82 1012.4
20260507023004 7 326 4.8 14.5 0.00 0.51 0.51 83 1012.4
20260507022005 7 297 4.8 19.3 0.00 0.51 0.51 85 1012.0
20260507021504 7 324 6.4 12.9 0.00 0.51 0.51 86 1012.0
20260507021005 7 319 4.8 19.3 0.00 0.51 0.51 85 1012.0
20260507020504 7 292 4.8 16.1 0.00 0.51 0.51 86 1012.0
20260507020004 8 323 6.4 19.3 0.00 0.51 0.51 86 1011.9
20260507015504 8 332 6.4 19.3 0.00 0.51 0.51 86 1011.8
20260507015004 8 327 4.8 19.3 0.00 0.51 0.51 86 1012.1
20260507014504 8 326 4.8 12.9 0.00 0.51 0.51 86 1011.9
20260507014004 8 328 8.0 16.1 0.00 0.51 0.51 87 1011.9
20260507013004 8 329 4.8 16.1 0.00 0.51 0.51 87 1012.5
20260507012004 8 302 6.4 19.3 0.00 0.51 0.51 88 1012.5
20260507011505 8 312 4.8 12.9 0.00 0.51 0.51 89 1012.5
20260507011004 8 319 4.8 16.1 0.00 0.51 0.51 89 1012.4
20260507010504 8 306 8.0 19.3 0.00 0.51 0.51 89 1012.3
20260507010004 8 294 4.8 12.9 0.00 0.51 0.51 90 1012.3
20260507005505 8 287 4.8 14.5 0.00 0.51 0.51 90 1012.4
20260507005008 8 330 4.8 9.7 0.00 0.51 0.51 90 1012.6
20260507004506 8 307 4.8 8.0 0.00 0.51 0.51 90 1012.7
20260507004004 8 296 3.2 4.8 0.00 0.51 0.51 90 1012.7
20260507003504 8 296 1.6 4.8 0.00 0.51 0.51 90 1012.7
20260507001004 8 302 0.0 4.8 0.00 0.51 0.51 89 1012.3
20260507000004 8 285 3.2 9.7 0.00 0.51 0.51 90 1012.2
20260506235004 8 291 3.2 8.0 0.00 0.51 0.51 89 1011.8
20260506234504 8 271 1.6 8.0 0.00 0.51 0.51 89 1011.7
20260506234005 8 297 3.2 11.3 0.00 0.51 0.51 89 1011.7
20260506233004 8 307 3.2 11.3 0.00 0.51 0.51 89 1011.6
20260506232504 8 298 4.8 14.5 0.00 0.51 0.51 89 1011.5
20260506232004 8 298 4.8 12.9 0.00 0.51 0.51 89 1011.3
20260506231504 8 336 4.8 9.7 0.00 0.51 0.51 89 1011.3
20260506231005 8 314 3.2 4.8 0.00 0.51 0.51 89 1011.3
20260506230004 8 325 3.2 4.8 0.00 0.51 0.51 89 1011.3
20260506225503 8 300 6.4 12.9 0.00 0.51 0.51 89 1011.3
20260506225004 8 307 4.8 14.5 0.00 0.51 0.51 90 1011.3
20260506224504 8 306 4.8 11.3 0.00 0.51 0.51 90 1011.3
20260506224004 8 296 9.7 19.3 0.00 0.51 0.51 90 1011.2
20260506223505 8 330 6.4 22.5 0.00 0.51 0.51 91 1011.2
20260506223003 8 315 4.8 25.7 0.00 0.51 0.51 91 1011.2
20260506222504 9 308 8.0 22.5 0.00 0.51 0.51 92 1011.1
20260506222003 9 292 6.4 19.3 0.00 0.51 0.51 92 1011.1
20260506221504 9 312 4.8 16.1 0.00 0.51 0.51 92 1011.0
20260506221004 9 270 4.8 14.5 0.00 0.51 0.51 92 1011.1
20260506220504 9 305 9.7 19.3 0.00 0.51 0.51 92 1011.0
20260506220004 9 272 9.7 20.9 0.00 0.51 0.51 92 1010.9
20260506214504 9 301 6.4 16.1 0.00 0.51 0.51 93 1010.6
20260506214003 9 292 8.0 19.3 0.00 0.51 0.51 93 1010.7
20260506212503 9 290 6.4 16.1 0.00 0.51 0.51 93 1010.3
20260506212004 9 301 3.2 16.1 0.00 0.51 0.51 93 1010.1
20260506211503 9 292 1.6 14.5 0.00 0.51 0.51 93 1010.1
20260506210504 9 251 4.8 12.9 0.00 0.51 0.51 93 1010.2
20260506210004 9 283 8.0 16.1 0.00 0.51 0.51 93 1010.2
20260506205504 9 313 1.6 9.7 0.00 0.51 0.51 93 1010.0
20260506204503 9 277 4.8 19.3 0.00 0.51 0.51 93 1009.9
20260506204004 9 276 9.7 20.9 0.00 0.51 0.51 93 1009.9
20260506203504 9 320 3.2 11.3 0.00 0.51 0.51 93 1009.8
20260506203004 9 260 3.2 12.9 0.00 0.51 0.51 93 1009.8
20260506202504 9 310 4.8 14.5 0.00 0.51 0.51 93 1009.8
20260506202004 9 329 3.2 19.3 0.00 0.51 0.51 93 1009.8
20260506201504 9 302 4.8 19.3 0.00 0.51 0.51 93 1009.8
20260506201003 9 308 8.0 16.1 0.00 0.51 0.51 93 1010.1
20260506200004 9 299 3.2 14.5 0.00 0.51 0.51 93 1010.0
20260506195003 9 309 1.6 14.5 0.00 0.51 0.51 93 1009.9
20260506194505 9 260 8.0 22.5 0.00 0.51 0.51 93 1009.9
20260506194004 9 272 8.0 16.1 0.00 0.51 0.51 93 1009.9
20260506193503 10 298 8.0 16.1 0.00 0.51 0.51 93 1009.8
20260506193004 10 297 4.8 19.3 0.00 0.51 0.51 93 1009.8
20260506192504 10 264 4.8 14.5 0.00 0.51 0.51 93 1009.8
20260506192004 10 283 6.4 14.5 0.00 0.51 0.51 93 1009.8
20260506191503 10 310 3.2 19.3 0.00 0.51 0.51 93 1009.7
20260506191004 10 298 9.7 20.9 0.00 0.51 0.51 93 1009.6
20260506190003 10 305 4.8 19.3 0.00 0.51 0.51 93 1009.4
20260506185504 10 305 6.4 16.1 0.00 0.51 0.51 93 1009.5
20260506185003 10 273 3.2 19.3 0.00 0.51 0.51 93 1009.6
20260506184503 10 301 8.0 20.9 0.00 0.51 0.51 93 1009.6
20260506184003 10 292 4.8 22.5 0.00 0.51 0.51 93 1009.5
20260506183504 10 305 9.7 20.9 0.00 0.51 0.51 93 1009.5
20260506183004 10 276 8.0 16.1 0.00 0.51 0.51 93 1009.4
20260506182004 11 305 4.8 19.3 0.00 0.51 0.51 92 1009.2
20260506181504 11 306 4.8 19.3 0.00 0.51 0.51 93 1009.2
20260506181004 11 310 9.7 22.5 0.00 0.51 0.51 93 1009.0
20260506180504 11 309 3.2 16.1 0.00 0.51 0.51 93 1008.9
20260506180005 11 276 4.8 14.5 0.00 0.51 0.51 92 1009.0
20260506175003 11 283 8.0 22.5 0.00 0.51 0.51 93 1008.9
20260506174504 12 282 9.7 19.3 0.00 0.51 0.51 92 1008.9
20260506174004 12 291 4.8 19.3 0.00 0.51 0.51 93 1008.9
20260506173504 12 295 3.2 14.5 0.00 0.51 0.51 93 1008.8
20260506172503 12 283 4.8 14.5 0.00 0.51 0.51 93 1008.7
20260506172003 12 266 6.4 20.9 0.00 0.51 0.51 93 1008.7
20260506171504 12 270 3.2 16.1 0.00 0.51 0.51 93 1008.6
20260506171003 12 271 8.0 19.3 0.00 0.51 0.51 93 1008.6
20260506170004 12 297 9.7 19.3 0.00 0.51 0.51 93 1008.5
20260506165504 12 257 4.8 19.3 0.00 0.51 0.51 92 1008.5
20260506165004 12 271 3.2 16.1 0.00 0.51 0.51 92 1008.5